When you browse on this site, cookies collect data to enhance your experience and personalize the content and advertising you see.
Visit our Privacy Policy to learn more. By continuing to use the site, you agree to this use of cookies and data.
EN

Hourly Weather Durres

Today, 3 August, Monday

Time Temperature Precipitation Wind Pressure Humidity
00:00 +26°C° 0 mm 3 mps 756 mmHg 52%
01:00 +26°C° 0 mm 2 mps 756 mmHg 51%
02:00 +26°C° 0 mm 3 mps 756 mmHg 48%
03:00 +25°C° 0 mm 3 mps 756 mmHg 45%
04:00 +25°C° 0 mm 4 mps 756 mmHg 42%
05:00 +27°C° 0 mm 3 mps 756 mmHg 37%
06:00 +30°C° 0 mm 3 mps 756 mmHg 32%
07:00 +33°C° 0 mm 3 mps 756 mmHg 28%
08:00 +35°C° 0 mm 4 mps 756 mmHg 28%
09:00 +36°C° 0 mm 4 mps 756 mmHg 28%
10:00 +39°C° 0 mm 5 mps 756 mmHg 28%
11:00 +39°C° 0 mm 5 mps 756 mmHg 29%
12:00 +39°C° 0 mm 6 mps 755 mmHg 30%
13:00 +39°C° 0 mm 7 mps 755 mmHg 31%
14:00 +39°C° 0 mm 7 mps 755 mmHg 29%
15:00 +38°C° 0 mm 6 mps 755 mmHg 27%
16:00 +38°C° 0 mm 6 mps 755 mmHg 25%
17:00 +34°C° 0 mm 6 mps 754 mmHg 35%
18:00 +32°C° 0 mm 6 mps 754 mmHg 45%
19:00 +28°C° 0 mm 6 mps 754 mmHg 54%
20:00 +27°C° 0 mm 6 mps 754 mmHg 56%
21:00 +27°C° 0 mm 6 mps 755 mmHg 57%
22:00 +26°C° 0 mm 7 mps 755 mmHg 58%
23:00 +26°C° 0 mm 6 mps 755 mmHg 55%

Tomorrow, 4 August, Tuesday

Time Temperature Precipitation Wind Pressure Humidity
00:00 +26°C° 0 mm 6 mps 755 mmHg 52%
01:00 +24°C° 0 mm 6 mps 755 mmHg 48%
02:00 +24°C° 0 mm 6 mps 755 mmHg 47%
03:00 +25°C° 0 mm 5 mps 755 mmHg 46%
04:00 +25°C° 0 mm 4 mps 755 mmHg 46%
05:00 +27°C° 0 mm 4 mps 755 mmHg 42%
06:00 +29°C° 0 mm 4 mps 755 mmHg 38%
07:00 +31°C° 0 mm 3 mps 755 mmHg 35%
08:00 +34°C° 0 mm 4 mps 755 mmHg 31%
09:00 +36°C° 0 mm 5 mps 755 mmHg 27%
10:00 +39°C° 0 mm 5 mps 755 mmHg 24%
11:00 +39°C° 0 mm 6 mps 755 mmHg 25%
12:00 +39°C° 0 mm 7 mps 754 mmHg 27%
13:00 +40°C° 0 mm 8 mps 754 mmHg 29%
14:00 +39°C° 0 mm 8 mps 754 mmHg 31%
15:00 +38°C° 0 mm 8 mps 753 mmHg 34%
16:00 +36°C° 0 mm 7 mps 753 mmHg 36%
17:00 +34°C° 0 mm 8 mps 753 mmHg 45%
18:00 +31°C° 0 mm 8 mps 753 mmHg 54%
19:00 +28°C° 0 mm 8 mps 753 mmHg 64%
20:00 +27°C° 0.1 mm 8 mps 753 mmHg 66%
21:00 +27°C° 0.1 mm 8 mps 754 mmHg 68%
22:00 +26°C° 0.1 mm 8 mps 754 mmHg 71%
23:00 +26°C° 1 mm 7 mps 754 mmHg 71%

Day after tomorrow, 5 August, Wednesday

Time Temperature Precipitation Wind Pressure Humidity
00:00 +24°C° 1 mm 7 mps 754 mmHg 70%
01:00 +24°C° 1 mm 7 mps 754 mmHg 70%
02:00 +24°C° 2.3 mm 6 mps 753 mmHg 73%
03:00 +23°C° 2.3 mm 5 mps 753 mmHg 75%
04:00 +23°C° 2.3 mm 4 mps 753 mmHg 78%
05:00 +24°C° 3 mm 3 mps 753 mmHg 82%
06:00 +22°C° 3 mm 3 mps 754 mmHg 85%
07:00 +22°C° 3 mm 3 mps 754 mmHg 89%
08:00 +22°C° 2 mm 3 mps 754 mmHg 87%
09:00 +24°C° 2 mm 3 mps 754 mmHg 86%
10:00 +23°C° 2 mm 4 mps 755 mmHg 84%
11:00 +26°C° 0 mm 4 mps 754 mmHg 73%
12:00 +28°C° 0 mm 3 mps 754 mmHg 62%
13:00 +30°C° 0 mm 3 mps 754 mmHg 51%
14:00 +30°C° 0 mm 4 mps 754 mmHg 52%
15:00 +30°C° 0 mm 5 mps 754 mmHg 53%
16:00 +30°C° 0 mm 6 mps 753 mmHg 54%
17:00 +28°C° 0 mm 5 mps 754 mmHg 59%
18:00 +27°C° 0 mm 5 mps 754 mmHg 64%
19:00 +25°C° 0 mm 4 mps 754 mmHg 68%
20:00 +25°C° 0 mm 4 mps 755 mmHg 71%
21:00 +23°C° 0 mm 4 mps 755 mmHg 74%
22:00 +22°C° 0 mm 3 mps 755 mmHg 77%
23:00 +22°C° 0 mm 4 mps 755 mmHg 76%

6 August, Thursday

Time Temperature Precipitation Wind Pressure Humidity
00:00 +22°C° 0 mm 4 mps 755 mmHg 76%
01:00 +22°C° 0 mm 4 mps 755 mmHg 75%
02:00 +21°C° 0 mm 4 mps 755 mmHg 75%
03:00 +21°C° 0 mm 4 mps 755 mmHg 75%
04:00 +21°C° 0 mm 5 mps 755 mmHg 74%
05:00 +22°C° 0.1 mm 4 mps 755 mmHg 70%
06:00 +23°C° 0.1 mm 4 mps 755 mmHg 65%
07:00 +25°C° 0.1 mm 4 mps 756 mmHg 61%
08:00 +27°C° 0.1 mm 4 mps 756 mmHg 54%
09:00 +29°C° 0.1 mm 4 mps 756 mmHg 48%
10:00 +32°C° 0.1 mm 4 mps 756 mmHg 42%
11:00 +33°C° 0 mm 4 mps 756 mmHg 41%
12:00 +33°C° 0 mm 5 mps 756 mmHg 40%
13:00 +34°C° 0 mm 6 mps 756 mmHg 40%
14:00 +30°C° 0.4 mm 6 mps 756 mmHg 51%
15:00 +28°C° 0.4 mm 7 mps 756 mmHg 61%
16:00 +26°C° 0.4 mm 7 mps 756 mmHg 72%
17:00 +24°C° 0.1 mm 6 mps 756 mmHg 74%
18:00 +23°C° 0.1 mm 4 mps 756 mmHg 76%
19:00 +24°C° 0.1 mm 3 mps 757 mmHg 77%
20:00 +24°C° 0.1 mm 3 mps 757 mmHg 77%
21:00 +22°C° 0.1 mm 3 mps 757 mmHg 77%
22:00 +22°C° 0.1 mm 4 mps 757 mmHg 77%
23:00 +22°C° 0 mm 4 mps 757 mmHg 77%

7 August, Friday

Time Temperature Precipitation Wind Pressure Humidity
00:00 +21°C° 0 mm 5 mps 757 mmHg 77%
01:00 +21°C° 0 mm 6 mps 757 mmHg 77%
02:00 +21°C° 0 mm 5 mps 756 mmHg 77%
03:00 +21°C° 0 mm 5 mps 756 mmHg 76%
04:00 +21°C° 0 mm 4 mps 756 mmHg 75%
05:00 +22°C° 0 mm 3 mps 756 mmHg 71%
06:00 +24°C° 0 mm 3 mps 756 mmHg 66%
07:00 +25°C° 0 mm 2 mps 757 mmHg 62%
08:00 +27°C° 0 mm 2 mps 757 mmHg 55%
09:00 +29°C° 0 mm 3 mps 757 mmHg 48%
10:00 +31°C° 0 mm 3 mps 757 mmHg 42%
11:00 +33°C° 0 mm 4 mps 757 mmHg 39%
12:00 +34°C° 0 mm 4 mps 757 mmHg 36%
13:00 +35°C° 0 mm 5 mps 756 mmHg 33%
14:00 +34°C° 0 mm 6 mps 756 mmHg 35%
15:00 +34°C° 0 mm 6 mps 756 mmHg 37%
16:00 +33°C° 0 mm 7 mps 756 mmHg 39%
17:00 +32°C° 0.1 mm 7 mps 756 mmHg 44%
18:00 +29°C° 0.1 mm 7 mps 756 mmHg 48%
19:00 +28°C° 0.1 mm 6 mps 756 mmHg 53%
20:00 +27°C° 0 mm 5 mps 757 mmHg 57%
21:00 +26°C° 0 mm 5 mps 757 mmHg 60%
22:00 +25°C° 0 mm 4 mps 757 mmHg 64%
23:00 +25°C° 0 mm 3 mps 757 mmHg 62%

8 August, Saturday

Time Temperature Precipitation Wind Pressure Humidity
00:00 +24°C° 0 mm 3 mps 756 mmHg 61%
01:00 +24°C° 0 mm 3 mps 756 mmHg 59%
02:00 +24°C° 0 mm 3 mps 756 mmHg 59%
03:00 +23°C° 0 mm 4 mps 756 mmHg 59%
04:00 +22°C° 0 mm 4 mps 756 mmHg 59%
05:00 +25°C° 0 mm 4 mps 756 mmHg 56%
06:00 +26°C° 0 mm 4 mps 756 mmHg 53%
07:00 +28°C° 0 mm 4 mps 756 mmHg 49%
08:00 +30°C° 0 mm 4 mps 756 mmHg 43%
09:00 +33°C° 0 mm 4 mps 756 mmHg 37%
10:00 +35°C° 0 mm 4 mps 756 mmHg 31%
11:00 +36°C° 0 mm 5 mps 756 mmHg 30%
12:00 +38°C° 0 mm 6 mps 756 mmHg 28%
13:00 +39°C° 0 mm 6 mps 756 mmHg 27%
14:00 +38°C° 0 mm 7 mps 755 mmHg 31%
15:00 +37°C° 0 mm 8 mps 755 mmHg 35%
16:00 +35°C° 0 mm 8 mps 755 mmHg 38%
17:00 +33°C° 0 mm 8 mps 755 mmHg 44%
18:00 +32°C° 0 mm 8 mps 755 mmHg 49%
19:00 +29°C° 0 mm 8 mps 756 mmHg 54%
20:00 +29°C° 0 mm 8 mps 756 mmHg 57%
21:00 +28°C° 0 mm 7 mps 756 mmHg 59%
22:00 +27°C° 0 mm 6 mps 756 mmHg 61%
23:00 +26°C° 0 mm 5 mps 756 mmHg 60%
Show more